• In Belarus
  • List of Countries
  • For 7 days
  • Water Temperature
  • Satellite Maps
  • Weather Map
  • Weather Widgets
  • user-avatar
    Login

    Hourly Weather Smolan

    Today, 23 January, Tuesday

    Time Temperature Precipitation Wind Pressure Humidity
    00:00 -8°C° 0 mm 2 mps 650 mmHg 81%
    01:00 -8°C° 0 mm 2 mps 651 mmHg 81%
    02:00 -8°C° 0 mm 3 mps 651 mmHg 81%
    03:00 -7°C° 0 mm 2 mps 651 mmHg 81%
    04:00 -8°C° 0 mm 2 mps 652 mmHg 81%
    05:00 -8°C° 0 mm 2 mps 652 mmHg 81%
    06:00 -8°C° 0 mm 2 mps 652 mmHg 81%
    07:00 -7°C° 0 mm 1 mps 652 mmHg 80%
    08:00 -7°C° 0 mm 1 mps 653 mmHg 80%
    09:00 -4°C° 0 mm 1 mps 653 mmHg 73%
    10:00 -2°C° 0 mm 1 mps 654 mmHg 67%
    11:00 -1°C° 0 mm 1 mps 655 mmHg 60%
    12:00 0°C° 0 mm 1 mps 655 mmHg 60%
    13:00 -2°C° 0 mm 2 mps 656 mmHg 59%
    14:00 -2°C° 0 mm 2 mps 655 mmHg 61%
    15:00 -1°C° 0 mm 1 mps 656 mmHg 65%
    16:00 -2°C° 0 mm 1 mps 656 mmHg 69%
    17:00 -2°C° 0 mm 1 mps 656 mmHg 73%
    18:00 -3°C° 0 mm 1 mps 657 mmHg 75%
    19:00 -4°C° 0 mm 1 mps 657 mmHg 78%
    20:00 -6°C° 0 mm 1 mps 657 mmHg 81%
    21:00 -7°C° 0 mm 2 mps 657 mmHg 81%
    22:00 -7°C° 0 mm 2 mps 658 mmHg 81%
    23:00 -7°C° 0 mm 2 mps 658 mmHg 81%

    Tomorrow, 24 January, Wednesday

    Time Temperature Precipitation Wind Pressure Humidity
    00:00 -8°C° 0 mm 2 mps 658 mmHg 81%
    01:00 -8°C° 0 mm 2 mps 659 mmHg 81%
    02:00 -8°C° 0 mm 2 mps 659 mmHg 81%
    03:00 -8°C° 0 mm 2 mps 659 mmHg 81%
    04:00 -8°C° 0 mm 2 mps 659 mmHg 80%
    05:00 -8°C° 0 mm 2 mps 660 mmHg 80%
    06:00 -8°C° 0 mm 2 mps 660 mmHg 80%
    07:00 -9°C° 0 mm 2 mps 660 mmHg 80%
    08:00 -9°C° 0 mm 2 mps 661 mmHg 80%
    09:00 -9°C° 0 mm 3 mps 661 mmHg 72%
    10:00 -7°C° 0 mm 3 mps 662 mmHg 65%
    11:00 -6°C° 0 mm 3 mps 663 mmHg 57%
    12:00 -6°C° 0 mm 3 mps 663 mmHg 55%
    13:00 -5°C° 0 mm 3 mps 663 mmHg 52%
    14:00 -5°C° 0 mm 3 mps 663 mmHg 50%
    15:00 -5°C° 0 mm 3 mps 662 mmHg 53%
    16:00 -6°C° 0 mm 3 mps 662 mmHg 56%
    17:00 -6°C° 0 mm 2 mps 662 mmHg 60%
    18:00 -7°C° 0 mm 2 mps 662 mmHg 62%
    19:00 -8°C° 0 mm 2 mps 662 mmHg 64%
    20:00 -9°C° 0 mm 2 mps 662 mmHg 67%
    21:00 -9°C° 0 mm 2 mps 662 mmHg 66%
    22:00 -9°C° 0 mm 2 mps 662 mmHg 66%
    23:00 -9°C° 0 mm 2 mps 662 mmHg 65%

    Day after tomorrow, 25 January, Thursday

    Time Temperature Precipitation Wind Pressure Humidity
    00:00 -9°C° 0 mm 2 mps 662 mmHg 64%
    01:00 -9°C° 0 mm 2 mps 662 mmHg 62%
    02:00 -9°C° 0 mm 2 mps 662 mmHg 60%
    03:00 -9°C° 0 mm 2 mps 661 mmHg 58%
    04:00 -8°C° 0 mm 1 mps 661 mmHg 55%
    05:00 -8°C° 0 mm 1 mps 661 mmHg 52%
    06:00 -8°C° 0 mm 1 mps 661 mmHg 50%
    07:00 -8°C° 0 mm 1 mps 661 mmHg 48%
    08:00 -8°C° 0 mm 1 mps 661 mmHg 46%
    09:00 -6°C° 0 mm 1 mps 661 mmHg 41%
    10:00 -3°C° 0 mm 1 mps 662 mmHg 36%
    11:00 -1°C° 0 mm 1 mps 663 mmHg 31%
    12:00 -1°C° 0 mm 1 mps 662 mmHg 31%
    13:00 0°C° 0 mm 1 mps 662 mmHg 31%
    14:00 +1°C° 0 mm 1 mps 662 mmHg 31%
    15:00 -1°C° 0 mm 1 mps 661 mmHg 37%
    16:00 -2°C° 0 mm 1 mps 660 mmHg 43%
    17:00 -3°C° 0 mm 1 mps 660 mmHg 49%
    18:00 -4°C° 0 mm 1 mps 660 mmHg 51%
    19:00 -6°C° 0 mm 1 mps 659 mmHg 53%
    20:00 -7°C° 0 mm 1 mps 659 mmHg 55%
    21:00 -7°C° 0 mm 1 mps 659 mmHg 53%
    22:00 -7°C° 0 mm 1 mps 659 mmHg 52%
    23:00 -7°C° 0 mm 1 mps 659 mmHg 50%

    26 January, Friday

    Time Temperature Precipitation Wind Pressure Humidity
    00:00 -7°C° 0 mm 1 mps 659 mmHg 50%
    01:00 -7°C° 0 mm 1 mps 659 mmHg 50%
    02:00 -7°C° 0 mm 1 mps 659 mmHg 50%
    03:00 -7°C° 0 mm 1 mps 658 mmHg 49%
    04:00 -7°C° 0 mm 1 mps 658 mmHg 49%
    05:00 -7°C° 0 mm 1 mps 658 mmHg 48%
    06:00 -7°C° 0 mm 1 mps 658 mmHg 48%
    07:00 -7°C° 0 mm 1 mps 658 mmHg 48%
    08:00 -6°C° 0 mm 1 mps 658 mmHg 49%
    09:00 -4°C° 0 mm 1 mps 659 mmHg 45%
    10:00 -2°C° 0 mm 1 mps 659 mmHg 42%
    11:00 0°C° 0 mm 1 mps 660 mmHg 39%
    12:00 +1°C° 0 mm 1 mps 660 mmHg 39%
    13:00 +2°C° 0 mm 1 mps 660 mmHg 39%
    14:00 +2°C° 0 mm 1 mps 659 mmHg 39%
    15:00 +1°C° 0 mm 1 mps 659 mmHg 46%
    16:00 0°C° 0 mm 1 mps 659 mmHg 53%
    17:00 -1°C° 0 mm 1 mps 658 mmHg 60%
    18:00 -2°C° 0 mm 1 mps 658 mmHg 63%
    19:00 -3°C° 0 mm 1 mps 658 mmHg 66%
    20:00 -4°C° 0 mm 1 mps 658 mmHg 69%
    21:00 -4°C° 0 mm 1 mps 658 mmHg 68%
    22:00 -4°C° 0 mm 1 mps 658 mmHg 68%
    23:00 -4°C° 0 mm 1 mps 658 mmHg 68%

    27 January, Saturday

    Time Temperature Precipitation Wind Pressure Humidity
    00:00 -4°C° 0 mm 1 mps 658 mmHg 67%
    01:00 -4°C° 0 mm 1 mps 658 mmHg 67%
    02:00 -4°C° 0 mm 1 mps 658 mmHg 66%
    03:00 -4°C° 0 mm 1 mps 658 mmHg 66%
    04:00 -4°C° 0 mm 1 mps 658 mmHg 65%
    05:00 -4°C° 0 mm 1 mps 658 mmHg 64%
    06:00 -4°C° 0 mm 1 mps 658 mmHg 64%
    07:00 -4°C° 0 mm 1 mps 658 mmHg 63%
    08:00 -3°C° 0 mm 1 mps 659 mmHg 62%
    09:00 -1°C° 0 mm 1 mps 659 mmHg 56%
    10:00 +1°C° 0 mm 1 mps 660 mmHg 51%
    11:00 +3°C° 0 mm 1 mps 661 mmHg 45%
    12:00 +3°C° 0 mm 1 mps 661 mmHg 46%
    13:00 +4°C° 0 mm 1 mps 661 mmHg 46%
    14:00 +4°C° 0 mm 1 mps 661 mmHg 46%
    15:00 +3°C° 0 mm 1 mps 661 mmHg 53%
    16:00 +1°C° 0 mm 1 mps 661 mmHg 60%
    17:00 0°C° 0 mm 1 mps 661 mmHg 67%
    18:00 -1°C° 0 mm 1 mps 661 mmHg 69%
    19:00 -2°C° 0 mm 1 mps 661 mmHg 72%
    20:00 -3°C° 0 mm 1 mps 661 mmHg 75%
    21:00 -3°C° 0 mm 1 mps 661 mmHg 74%
    22:00 -3°C° 0 mm 1 mps 662 mmHg 74%
    23:00 -3°C° 0 mm 1 mps 662 mmHg 73%

    28 January, Sunday

    Time Temperature Precipitation Wind Pressure Humidity
    00:00 -3°C° 0 mm 1 mps 662 mmHg 72%
    01:00 -3°C° 0 mm 1 mps 662 mmHg 70%
    02:00 -3°C° 0 mm 1 mps 662 mmHg 69%
    03:00 -3°C° 0 mm 1 mps 662 mmHg 68%
    04:00 -3°C° 0 mm 1 mps 662 mmHg 66%
    05:00 -3°C° 0 mm 1 mps 662 mmHg 65%
    06:00 -3°C° 0 mm 1 mps 662 mmHg 63%
    07:00 -3°C° 0 mm 1 mps 662 mmHg 62%
    08:00 -3°C° 0 mm 1 mps 663 mmHg 60%
    09:00 -1°C° 0 mm 1 mps 664 mmHg 55%
    10:00 +1°C° 0 mm 1 mps 664 mmHg 50%
    11:00 +3°C° 0 mm 1 mps 665 mmHg 44%
    12:00 +4°C° 0 mm 1 mps 665 mmHg 44%
    13:00 +5°C° 0 mm 1 mps 665 mmHg 44%
    14:00 +5°C° 0 mm 1 mps 665 mmHg 45%
    15:00 +4°C° 0 mm 1 mps 664 mmHg 51%
    16:00 +3°C° 0 mm 1 mps 664 mmHg 58%
    17:00 0°C° 0 mm 0 mps 663 mmHg 65%
    18:00 0°C° 0 mm 1 mps 663 mmHg 66%
    19:00 0°C° 0 mm 1 mps 663 mmHg 67%
    20:00 -1°C° 0 mm 1 mps 663 mmHg 67%
    21:00 -1°C° 0 mm 1 mps 663 mmHg 65%
    22:00 -1°C° 0 mm 1 mps 663 mmHg 62%
    23:00 -1°C° 0 mm 1 mps 663 mmHg 59%
    Show more